Estación de Contra Coronel

Ultimos registro cada 15 minutos 85
Estación Fecha / Hora Temperatura Humedad Lluvia Velocidad Dirección Radiación Presion
85 Contra Coronel 02-09-2026 21:00 8,5 94,1 0 1 192 0,6 1014,9
84 Contra Coronel 02-09-2026 20:45 8,6 94,6 0 1,3 185 0,6 1014,5
83 Contra Coronel 02-09-2026 20:30 9 94,1 0 1,3 192 0,6 1014,4
82 Contra Coronel 02-09-2026 20:15 9,6 91,1 0 0,7 173 0,6 1014,2
81 Contra Coronel 02-09-2026 20:00 9,7 89,1 0 0,7 154 0,6 1013,9
80 Contra Coronel 02-09-2026 19:45 9,9 86,7 0 1 149 0,6 1013,7
79 Contra Coronel 02-09-2026 19:30 10,2 85,9 0 1 183 0,6 1013,5
78 Contra Coronel 02-09-2026 19:15 10,4 84,9 0 1,3 195 0,6 1013,3
77 Contra Coronel 02-09-2026 19:00 10,4 83,5 0 1 267 0,6 1012,8
76 Contra Coronel 02-09-2026 18:45 10,5 83,7 0 1 272 0,6 1012,5
75 Contra Coronel 02-09-2026 18:30 10,2 87 0 0,7 270 3,1 1012,2
74 Contra Coronel 02-09-2026 18:15 10,6 88,2 0 0,7 305 13,1 1012
73 Contra Coronel 02-09-2026 18:00 11,3 84,4 0 1,7 299 48,1 1011,8
72 Contra Coronel 02-09-2026 17:45 11,7 81 0 1 282 21,9 1011,6
71 Contra Coronel 02-09-2026 17:30 12,8 78,9 0 1 282 75,6 1011,5
70 Contra Coronel 02-09-2026 17:15 12 80,6 0 1,3 291 83,1 1011,3
69 Contra Coronel 02-09-2026 17:00 12,6 82 0 1,7 295 285,6 1011,3
68 Contra Coronel 02-09-2026 16:45 12 83,6 0 1,3 288 300,6 1011,1
67 Contra Coronel 02-09-2026 16:30 11,8 85,5 0 1,7 298 146,9 1010,9
66 Contra Coronel 02-09-2026 16:15 11,4 88,2 0 2 310 190,6 1010,8
65 Contra Coronel 02-09-2026 16:00 10,9 91,3 0 1,3 310 105,6 1010,7
64 Contra Coronel 02-09-2026 15:45 11,1 91,7 0 1 292 111,9 1010,7
63 Contra Coronel 02-09-2026 15:30 11 91,6 0 0,7 298 125,6 1010,6
62 Contra Coronel 02-09-2026 15:15 10,4 91,8 0,2 0,7 261 71,9 1010,5
61 Contra Coronel 02-09-2026 15:00 10,4 90,7 0 0,7 225 68,1 1010,2
60 Contra Coronel 02-09-2026 14:45 10,7 90,2 0 1,3 198 100,6 1010
59 Contra Coronel 02-09-2026 14:30 11,2 85,1 0 2 195 168,1 1010,1
58 Contra Coronel 02-09-2026 14:15 13,5 72,3 0 1,7 270 179,4 1009,9
57 Contra Coronel 02-09-2026 14:00 13,5 72,7 0 3 330 240,6 1009,8
56 Contra Coronel 02-09-2026 13:45 14,4 73,4 0 2,7 333 331,9 1009,9
55 Contra Coronel 02-09-2026 13:30 13,5 75 0 3 324 710,6 1010
54 Contra Coronel 02-09-2026 13:15 14,3 74,4 0 3,3 316 509,4 1010
53 Contra Coronel 02-09-2026 13:00 15,1 75,4 0 2,3 337 681,9 1010,1
52 Contra Coronel 02-09-2026 12:45 12,8 88 0 1,3 316 435,6 1010,3
51 Contra Coronel 02-09-2026 12:30 12,2 89,2 0 1 324 239,4 1010,4
50 Contra Coronel 02-09-2026 12:15 12,2 84,8 0 0,3 306 181,9 1010,3
49 Contra Coronel 02-09-2026 12:00 11,5 89,2 0,2 1 291 194,4 1010,4
48 Contra Coronel 02-09-2026 11:45 11 88,7 0 1 285 150,6 1010,3
47 Contra Coronel 02-09-2026 11:30 11,2 83,2 0,2 1,7 302 74,4 1010,2
46 Contra Coronel 02-09-2026 11:15 12,9 76,6 0 2 314 126,9 1010,1
45 Contra Coronel 02-09-2026 11:00 12,2 76,1 0 3 316 173,1 1010
44 Contra Coronel 02-09-2026 10:45 12,6 78,3 0 2,7 337 89,4 1010
43 Contra Coronel 02-09-2026 10:30 12,3 79,4 0 2 350 166,9 1010
42 Contra Coronel 02-09-2026 10:15 13,7 76,6 0 2,3 331 485,6 1010,1
41 Contra Coronel 02-09-2026 10:00 13,1 78,2 0 3 333 163,1 1010
40 Contra Coronel 02-09-2026 09:45 12,8 79,2 0 2,3 337 355,6 1010
39 Contra Coronel 02-09-2026 09:30 12,5 82 0 1,7 343 321,9 1010
38 Contra Coronel 02-09-2026 09:15 10,6 88 0 2 0 119,4 1009,8
37 Contra Coronel 02-09-2026 09:00 11,1 87,9 0 1,7 352 165,6 1009,8
36 Contra Coronel 02-09-2026 08:45 10,5 88,8 0 1,3 4 208,1 1009,5
35 Contra Coronel 02-09-2026 08:30 9,9 90,6 0 0,3 17 170,6 1009,5
34 Contra Coronel 02-09-2026 08:15 8,5 94,1 0 0,3 8 34,4 1009,4
33 Contra Coronel 02-09-2026 08:00 8,9 93,3 0 0,3 20 50,6 1009,4
32 Contra Coronel 02-09-2026 07:45 8,4 93,8 0 0,3 8 13,1 1009,3
31 Contra Coronel 02-09-2026 07:30 8,4 93,9 0 0,7 8 3,1 1009,2
30 Contra Coronel 02-09-2026 07:15 7,4 95,9 0 0 95 0,6 1009,2
29 Contra Coronel 02-09-2026 07:00 7,6 95,1 0 0,3 112 0,6 1009,2
28 Contra Coronel 02-09-2026 06:45 8,2 93,8 0 0 358 0,6 1009
27 Contra Coronel 02-09-2026 06:30 6,3 97 0 0 41 0,6 1008,8
26 Contra Coronel 02-09-2026 06:15 7,1 97 0 0 44 0,6 1008,7
25 Contra Coronel 02-09-2026 06:00 6,9 98,8 0 0,3 76 0,6 1008,7
24 Contra Coronel 02-09-2026 05:45 6,4 98,9 0 0,7 62 0,6 1008,5
23 Contra Coronel 02-09-2026 05:30 6 98,5 0 0 316 0,6 1008,4
22 Contra Coronel 02-09-2026 05:15 5,5 97,9 0 0 271 0,6 1008,1
21 Contra Coronel 02-09-2026 05:00 5,8 97,1 0 0 265 0,6 1008
20 Contra Coronel 02-09-2026 04:45 6,3 96,7 0 0 310 0,6 1008
19 Contra Coronel 02-09-2026 04:30 7,3 95,2 0 0 310 0,6 1007,9
18 Contra Coronel 02-09-2026 04:15 8,4 94,6 0 0 305 0,6 1007,9
17 Contra Coronel 02-09-2026 04:00 9,2 91,7 0 2 284 0,6 1007,8
16 Contra Coronel 02-09-2026 03:45 8 98,3 0 0 284 0,6 1007,7
15 Contra Coronel 02-09-2026 03:30 8,7 98,1 0 0,3 320 0,6 1007,8
14 Contra Coronel 02-09-2026 03:15 8,2 98 0 0,7 338 0,6 1007,7
13 Contra Coronel 02-09-2026 03:00 8,8 96,2 0 0 108 0,6 1007,6
12 Contra Coronel 02-09-2026 02:45 9,6 95,8 0 0,3 248 0,6 1007,6
11 Contra Coronel 02-09-2026 02:30 9,9 94,9 0 1 338 0,6 1007,7
10 Contra Coronel 02-09-2026 02:15 10,1 94,5 0 1,3 358 0,6 1007,8
9 Contra Coronel 02-09-2026 02:00 10,1 94,6 0 1 11 0,6 1008,2
8 Contra Coronel 02-09-2026 01:45 9,9 94,4 0 1 18 0,6 1008,1
7 Contra Coronel 02-09-2026 01:30 9,9 93,4 0 1 7 0,6 1008,2
6 Contra Coronel 02-09-2026 01:15 9,6 94,2 0 0,7 20 0,6 1008,2
5 Contra Coronel 02-09-2026 01:00 9,8 93,6 0 1 358 0,6 1008,4
4 Contra Coronel 02-09-2026 00:45 10 93,1 0 0,3 0 0,6 1008,5
3 Contra Coronel 02-09-2026 00:30 10 92,3 0 1 4 0,6 1008,6
2 Contra Coronel 02-09-2026 00:15 10 92,8 0 1,7 358 0,6 1008,7
1 Contra Coronel 02-09-2026 00:00 10,1 91,9 0 1,7 4 0,6 1008,9